Gulfport, MS

12:28 AM CDT on April 27, 2018 (GMT -0500)
Gulfport-Biloxi Regional

Weather History for KGPT - October, 2013

Change the Weather History Date:

Saturday, October 5, 2013

  Actual Average Record
Temperature  
Mean Temperature 81 °F -  
Max Temperature 88 °F 83 °F 91 °F (1973)
Min Temperature 75 °F 62 °F 43 °F (1987)
Cooling Degree Days 16    
Growing Degree Days 31 (Base 50)    
Moisture  
Dew Point 73 °F    
Average Humidity 79    
Maximum Humidity 94    
Minimum Humidity 59    
Precipitation  
Precipitation 0.12 in - - ()
Sea Level Pressure  
Sea Level Pressure 29.97 in    
Wind  
Wind Speed 6 mph (ESE)    
Max Wind Speed 17 mph    
Max Gust Speed 24 mph    
Visibility 9 miles    
Events Rain    
Averages and records for this station are not official NWS values.
T = Trace of Precipitation, MM = Missing Value Source: NWS Daily Summary

Daily Weather History Graph

Daily Weather History Graph

Search for Another Location

Airport or City:

Astronomy

Oct. 05, 2013 Rise Set
Actual Time 6:52 AM CDT 6:36 PM CDT
Civil Twilight 6:28 AM CDT 7:00 PM CDT
Nautical Twilight 6:00 AM CDT 7:28 PM CDT
Astronomical Twilight 5:32 AM CDT 7:56 PM CDT
Moon 7:26 AM CDT (10/5) 7:02 PM CDT (10/5)
Length of Visible Light 12h 32m
Length of Day
11h 44m
New Moon, 1% of the Moon is Illuminated
Oct 5
New Moon
Oct 11
First Quarter
Oct 18
Full
Oct 26
Last Quarter
Nov 3
New

Hourly Weather History & Observations

Time (CDT) Temp. Heat Index Dew Point Humidity Pressure Visibility Wind Dir Wind Speed Gust Speed Precip Events Conditions
12:06 AM 78.8 °F - 73.4 °F 83% 30.01 in 10.0 mi Calm Calm - N/A   Mostly Cloudy
12:44 AM 78.8 °F - 75.2 °F 89% 30.00 in 10.0 mi ENE 3.5 mph - N/A   Scattered Clouds
12:53 AM 78.1 °F - 75.0 °F 90% 29.99 in 10.0 mi ENE 3.5 mph - N/A   Partly Cloudy
1:53 AM 75.9 °F - 73.9 °F 94% 29.99 in 9.0 mi Calm Calm - N/A   Clear
2:53 AM 75.9 °F - 73.9 °F 94% 29.97 in 9.0 mi NE 4.6 mph - N/A   Partly Cloudy
3:42 AM 77.0 °F - 73.4 °F 89% 29.97 in 8.0 mi NE 3.5 mph - N/A   Mostly Cloudy
3:49 AM 77.0 °F - 73.4 °F 89% 29.97 in 8.0 mi Calm Calm - N/A   Scattered Clouds
3:53 AM 75.9 °F - 73.9 °F 94% 29.97 in 8.0 mi Calm Calm - N/A   Scattered Clouds
4:53 AM 75.9 °F - 73.9 °F 94% 29.98 in 7.0 mi ENE 3.5 mph - N/A   Clear
5:53 AM 75.9 °F - 73.9 °F 94% 29.98 in 8.0 mi ENE 4.6 mph - N/A   Clear
6:53 AM 77.0 °F - 73.9 °F 90% 29.98 in 10.0 mi NE 4.6 mph - N/A   Clear
7:53 AM 79.0 °F - 75.0 °F 88% 29.99 in 10.0 mi East 6.9 mph - N/A   Clear
8:51 AM 82.4 °F 89.5 °F 75.2 °F 79% 30.01 in 10.0 mi ESE 9.2 mph - N/A   Mostly Cloudy
8:53 AM 82.0 °F 89.4 °F 75.9 °F 82% 30.01 in 10.0 mi ESE 11.5 mph - N/A   Mostly Cloudy
9:53 AM 84.0 °F 92.6 °F 75.9 °F 76% 30.01 in 10.0 mi ESE 16.1 mph 23.0 mph N/A   Mostly Cloudy
10:53 AM 84.9 °F 92.1 °F 73.9 °F 69% 30.01 in 10.0 mi SE 13.8 mph 19.6 mph N/A   Mostly Cloudy
11:00 AM 86.0 °F 93.4 °F 73.4 °F 66% 30.01 in 10.0 mi SSE 15.0 mph 21.9 mph N/A   Partly Cloudy
11:19 AM 86.0 °F 93.4 °F 73.4 °F 66% 30.01 in 10.0 mi SE 12.7 mph - N/A   Mostly Cloudy
11:53 AM 87.1 °F 94.5 °F 73.0 °F 63% 30.01 in 10.0 mi SE 13.8 mph 20.7 mph N/A   Scattered Clouds
12:53 PM 86.0 °F 93.8 °F 73.9 °F 67% 29.99 in 10.0 mi SE 13.8 mph 21.9 mph N/A   Scattered Clouds
1:53 PM 87.1 °F 94.5 °F 73.0 °F 63% 29.96 in 10.0 mi SE 12.7 mph - N/A   Scattered Clouds
2:53 PM 87.1 °F 92.8 °F 71.1 °F 59% 29.94 in 10.0 mi ESE 13.8 mph 19.6 mph N/A   Scattered Clouds
3:53 PM 86.0 °F 92.2 °F 72.0 °F 63% 29.94 in 10.0 mi SE 15.0 mph - N/A   Partly Cloudy
4:53 PM 84.9 °F 90.7 °F 72.0 °F 65% 29.94 in 10.0 mi North - - N/A   Unknown
4:55 PM 84.2 °F 89.6 °F 71.6 °F 66% 29.94 in 10.0 mi North - - N/A   Scattered Clouds
4:56 PM 84.2 °F 89.6 °F 71.6 °F 66% 29.94 in 10.0 mi SE 17.3 mph 24.2 mph N/A   Scattered Clouds
5:53 PM 84.0 °F 90.2 °F 73.0 °F 69% 29.93 in 10.0 mi SE 17.3 mph 24.2 mph N/A   Scattered Clouds
6:15 PM 78.8 °F - 71.6 °F 78% 29.94 in 3.0 mi SSE 13.8 mph 21.9 mph 0.04 in Rain Rain
6:17 PM 78.8 °F - 73.4 °F 83% 29.94 in 1.8 mi SSE 13.8 mph 21.9 mph 0.08 in Rain Rain
6:24 PM 77.0 °F - 73.4 °F 89% 29.94 in 10.0 mi South 6.9 mph 20.7 mph 0.12 in Rain Rain
6:53 PM 77.0 °F - 73.0 °F 88% 29.93 in 10.0 mi Calm Calm - 0.12 in Rain Rain
7:53 PM 80.1 °F 84.5 °F 73.9 °F 81% 29.93 in 10.0 mi SSE 11.5 mph - 0.00 in   Partly Cloudy
8:53 PM 80.1 °F 84.2 °F 73.0 °F 79% 29.93 in 10.0 mi SSE 9.2 mph - N/A   Clear
9:53 PM 79.0 °F - 73.9 °F 84% 29.94 in 10.0 mi SE 9.2 mph - N/A   Clear
10:53 PM 80.1 °F 83.8 °F 72.0 °F 76% 29.94 in 10.0 mi SSE 11.5 mph - N/A   Scattered Clouds
11:53 PM 80.1 °F 83.8 °F 72.0 °F 76% 29.92 in 10.0 mi SE 12.7 mph - N/A   Partly Cloudy